Lubbock, TX

8:41 PM CST on December 06, 2019 (GMT -0600)
Lubbock International

Weather History for KLBB - May, 2019

Change the Weather History Date:

Thursday, May 2, 2019

  Actual Average Record
Temperature  
Mean Temperature 57 °F 66 °F  
Max Temperature 65 °F 80 °F 97 °F (1943)
Min Temperature 49 °F 51 °F 30 °F (1967)
Degree Days  
Heating Degree Days 8 3  
Month to date heating degree days 8 6  
Since 1 July heating degree days 3405 3343  
Cooling Degree Days 0 3  
Month to date cooling degree days 6 6  
Year to date cooling degree days 69 62  
Growing Degree Days 6 (Base 50)    
Moisture  
Dew Point 53 °F    
Average Humidity 78    
Maximum Humidity 93    
Minimum Humidity 62    
Precipitation  
Precipitation T in 0.06 in 1.91 in (1941)
Month to date precipitation T 0.11  
Year to date precipitation 2.92 4.02  
Snow  
Snow 0.00 in 0.00 in T in (2001)
Month to date snowfall 0.0 0.0  
Since 1 July snowfall 10.1 8.2  
Snow Depth 0.00 in    
Sea Level Pressure  
Sea Level Pressure 29.95 in    
Wind  
Wind Speed 13 mph (East)    
Max Wind Speed 24 mph    
Max Gust Speed 30 mph    
Visibility 7 miles    
Events Fog , Rain    
T = Trace of Precipitation, MM = Missing Value Source: NWS Daily Summary

Daily Weather History Graph

Daily Weather History Graph

Search for Another Location

Airport or City:

Astronomy

May. 02, 2019 Rise Set
Actual Time 6:57 AM CDT 8:31 PM CDT
Civil Twilight 6:31 AM CDT 8:57 PM CDT
Nautical Twilight 5:59 AM CDT 9:29 PM CDT
Astronomical Twilight 5:25 AM CDT 10:03 PM CDT
Moon 6:00 AM CDT (5/2) 6:30 PM CDT (5/2)
Length of Visible Light 14h 26m
Length of Day
13h 33m
Waning Crescent, 5% of the Moon is Illuminated
May 2
Waning Crescent
May 4
New
May 11
First Quarter
May 18
Full
May 26
Last Quarter

Hourly Weather History & Observations

Time (CDT) Temp. Dew Point Humidity Pressure Visibility Wind Dir Wind Speed Gust Speed Precip Events Conditions
12:53 AM 62.1 °F 60.1 °F 93% 29.76 in 10.0 mi SE 11.5 mph - N/A   Partly Cloudy
1:53 AM 62.1 °F 60.1 °F 93% 29.75 in 10.0 mi SSE 17.3 mph - N/A   Partly Cloudy
2:53 AM 64.9 °F 55.0 °F 70% 29.75 in 10.0 mi South 16.1 mph - N/A   Partly Cloudy
3:53 AM 64.0 °F 60.1 °F 87% 29.77 in 10.0 mi SSW 13.8 mph - N/A   Partly Cloudy
4:45 AM 57.0 °F 42.1 °F 57% 29.94 in 10.0 mi WSW 11.5 mph - N/A   Mostly Cloudy
4:53 AM 57.0 °F 44.1 °F 62% 29.82 in 10.0 mi WSW 12.7 mph - N/A   Overcast
5:26 AM 53.1 °F 45.0 °F 74% 29.94 in 10.0 mi WSW 8.1 mph - N/A   Scattered Clouds
5:53 AM 51.1 °F 46.0 °F 83% 29.84 in 10.0 mi SSW 3.5 mph - N/A   Scattered Clouds
6:53 AM 50.0 °F 45.0 °F 83% 29.87 in 10.0 mi East 10.4 mph - N/A   Scattered Clouds
7:01 AM 52.0 °F 46.9 °F 83% 30.00 in 10.0 mi Variable 6.9 mph - N/A   Mostly Cloudy
7:12 AM 57.9 °F 55.9 °F 93% 30.00 in 1.0 mi ENE 18.4 mph - N/A   Mostly Cloudy
7:33 AM 57.0 °F 55.9 °F 96% 30.01 in 0.5 mi ENE 17.3 mph 26.5 mph N/A Fog Fog
7:53 AM 57.0 °F 55.9 °F 96% 29.90 in 0.5 mi ENE 17.3 mph 27.6 mph N/A Fog Fog
8:05 AM 57.0 °F 55.9 °F 96% 30.03 in 0.5 mi ENE 21.9 mph 29.9 mph N/A Fog Fog
8:16 AM 55.9 °F 55.0 °F 97% 30.05 in 0.5 mi NE 20.7 mph 28.8 mph N/A   Overcast
8:18 AM 55.9 °F 55.0 °F 97% 30.05 in 1.5 mi NE 21.9 mph 28.8 mph N/A   Overcast
8:53 AM 54.0 °F 51.1 °F 90% 29.97 in 1.5 mi NE 20.7 mph 29.9 mph N/A   Overcast
8:56 AM 54.0 °F 51.1 °F 90% 30.08 in 10.0 mi NE 23.0 mph 29.9 mph N/A   Overcast
9:53 AM 53.1 °F 50.0 °F 89% 30.00 in 8.0 mi NE 21.9 mph - N/A   Overcast
10:53 AM 54.0 °F 50.0 °F 86% 30.03 in 9.0 mi NNE 15.0 mph - N/A   Overcast
11:53 AM 55.0 °F 52.0 °F 89% 30.04 in 1.5 mi NE 15.0 mph - 0.00 in   Light Drizzle
12:11 PM 55.9 °F 52.0 °F 87% 30.12 in 2.0 mi NE 13.8 mph - 0.00 in   Light Drizzle
12:53 PM 57.0 °F 51.1 °F 81% 30.03 in 2.0 mi NE 13.8 mph - 0.00 in   Light Drizzle
1:25 PM 57.0 °F 50.0 °F 77% 30.11 in 2.0 mi ENE 12.7 mph - 0.00 in   Light Drizzle
1:53 PM 59.0 °F 50.0 °F 72% 30.00 in 10.0 mi NE 13.8 mph - 0.00 in   Overcast
2:43 PM 63.0 °F 52.0 °F 67% 30.06 in 10.0 mi ENE 9.2 mph - N/A   Overcast
2:53 PM 62.1 °F 51.1 °F 67% 29.95 in 10.0 mi ENE 8.1 mph 18.4 mph N/A   Overcast
3:53 PM 62.1 °F 52.0 °F 70% 29.92 in 10.0 mi ENE 10.4 mph - N/A   Overcast
4:53 PM 63.0 °F 53.1 °F 70% 29.92 in 10.0 mi East 9.2 mph - N/A   Overcast
5:53 PM 61.0 °F 53.1 °F 75% 29.94 in 10.0 mi ESE 13.8 mph - N/A   Overcast
6:53 PM 61.0 °F 53.1 °F 75% 29.94 in 10.0 mi ESE 10.4 mph - N/A   Overcast
7:53 PM 61.0 °F 54.0 °F 78% 29.93 in 10.0 mi SE 11.5 mph - N/A   Overcast
8:10 PM 60.1 °F 54.0 °F 80% 30.01 in 10.0 mi ESE 10.4 mph - N/A   Overcast
8:53 PM 59.0 °F 54.0 °F 83% 29.94 in 10.0 mi ESE 10.4 mph - N/A   Overcast
9:29 PM 57.9 °F 54.0 °F 87% 30.00 in 10.0 mi East 8.1 mph - N/A   Overcast
9:53 PM 57.9 °F 54.0 °F 87% 29.94 in 9.0 mi ESE 12.7 mph - N/A   Overcast
10:53 PM 57.0 °F 55.9 °F 96% 29.94 in 4.0 mi East 10.4 mph - 0.00 in   Light Drizzle
11:53 PM 57.9 °F 55.0 °F 90% 29.93 in 10.0 mi SE 11.5 mph - 0.00 in   Overcast